[[{"header":{"parameterUnit":"m.s-1","parameterCategory":1,"la1":30.2991,"la2":30.254,"lo1":-89.0895,"lo2":-89.0444,"dy":0.0017,"dx":0.0017,"nx":28,"ny":28,"refTime":"2024-02-20T09:00:00:Z","depth":0,"parameterNumber":2,"parameterNumberName":"U-component_of_WINDS"},"data":[0,0,0,0,0,0,0,0,0,0,0,0,0,0,0,0,0,0,0,0,0,0,0,0,0,0,0,0,0,0,0,0,0,0,0,0,0,0,0,0,0,0,0,0,0,0,0,0,0,0,0,0,0,0,0,0,0,0,-0.3999,-0.3999,0,-0.4036,-0.4036,-0.4037,-0.4061,-0.4061,-0.4062,-0.4062,-0.41,-0.4101,-0.4102,0,0,0,0,0,0,0,0,0,0,0,0,0,-0.395,-0.3951,-0.3999,-0.3999,-0.4,-0.4036,-0.4036,-0.4037,-0.4061,-0.4061,-0.4062,-0.4062,-0.41,-0.4101,-0.4102,0,0,0,0,0,0,0,0,0,0,0,0,0,-0.3978,-0.3951,-0.3999,-0.4016,-0.4018,-0.4036,-0.4036,-0.4037,-0.4061,-0.4061,-0.4062,-0.4062,-0.41,-0.4101,-0.4102,-0.4106,0,0,-0.4106,-0.4107,0,0,0,0,0,0,0,0,-0.3976,-0.3979,-0.4013,-0.4015,-0.4017,-0.4044,-0.4033,-0.406,-0.4061,-0.4045,-0.4062,-0.4062,-0.4081,-0.4084,-0.4091,-0.4107,-0.4109,-0.4106,-0.4107,-0.4108,-0.4108,0,0,0,0,0,0,0,-0.3974,-0.3978,-0.4013,-0.4014,-0.4016,-0.4023,-0.4027,-0.4038,-0.4061,-0.4046,-0.4048,-0.4052,-0.4083,-0.4089,-0.4092,-0.411,-0.4106,-0.4108,-0.4108,-0.4109,-0.4131,-0.4131,0,0,0,0,0,0,-0.3969,-0.3976,-0.4012,-0.4014,-0.3997,-0.4023,-0.4028,-0.4035,-0.4061,-0.4065,-0.4052,-0.4053,-0.4087,-0.409,-0.4093,-0.4099,-0.4108,-0.4109,-0.411,-0.4131,-0.4131,-0.4131,0,0,0,0,0,0,-0.3968,-0.3972,-0.4011,-0.3996,-0.4001,-0.4024,-0.4032,-0.4036,-0.4043,-0.4066,-0.407,-0.4054,-0.4087,-0.4091,-0.4102,-0.41,-0.411,-0.4111,-0.4132,-0.4131,-0.4131,-0.411,0,0,0,0,0,0,-0.3967,-0.3972,-0.3973,-0.3996,-0.4002,-0.4019,-0.4032,-0.4036,-0.4045,-0.4047,-0.4069,-0.4073,-0.4088,-0.41,-0.4104,-0.4102,-0.4112,-0.4132,-0.4131,-0.4131,-0.4111,-0.4109,-0.4107,0,0,0,0,0,-0.3965,-0.3965,-0.3973,-0.3977,-0.4004,-0.4018,-0.4022,-0.4039,-0.4044,-0.4046,-0.4061,-0.4072,-0.41,-0.4101,-0.4105,-0.4104,-0.4132,-0.4132,-0.4131,-0.4111,-0.4109,-0.4107,0,0,0,0,0,0,-0.3942,-0.3969,-0.3977,-0.3985,-0.3999,-0.4022,-0.4025,-0.4036,-0.4049,-0.405,-0.4071,-0.4076,-0.4084,-0.4096,-0.4096,-0.4109,-0.4118,-0.4118,-0.4101,-0.4099,-0.4097,-0.4094,-0.4113,0,0,0,0,0,-0.3938,-0.3947,-0.397,-0.3975,-0.3982,-0.4002,-0.4009,-0.4021,-0.4036,-0.4043,-0.4058,-0.4073,-0.4086,-0.4093,-0.4106,-0.4113,-0.4118,-0.4114,-0.4112,-0.4111,-0.4111,-0.4115,-0.4114,-0.4129,-0.4129,-0.4129,0,0,-0.3929,-0.3945,-0.395,-0.3971,-0.3983,-0.3993,-0.4007,-0.4016,-0.4024,-0.4044,-0.4055,-0.4067,-0.4086,-0.4094,-0.4099,-0.4104,-0.4108,-0.411,-0.4109,-0.4109,-0.4115,-0.4113,-0.4112,-0.4129,-0.4129,-0.4129,0,0,-0.3918,-0.3931,-0.3937,-0.3949,-0.3967,-0.3981,-0.3982,-0.4004,-0.4013,-0.4024,-0.404,-0.405,-0.407,-0.4082,-0.4091,-0.4086,-0.4097,-0.409,-0.408,-0.4084,-0.4083,-0.4082,-0.408,-0.4079,-0.409,-0.409,-0.409,0,-0.3905,-0.392,-0.3938,-0.3946,-0.3955,-0.3975,-0.398,-0.3992,-0.4013,-0.4019,-0.4024,-0.4051,-0.4065,-0.4077,-0.4075,-0.4082,-0.4084,-0.4087,-0.4082,-0.4081,-0.408,-0.4078,-0.4078,-0.4088,-0.4089,-0.4089,-0.4089,0,-0.3903,-0.3913,-0.3915,-0.3935,-0.3945,-0.3952,-0.3971,-0.3979,-0.399,-0.4003,-0.4015,-0.4032,-0.4049,-0.4053,-0.4064,-0.4067,-0.4069,-0.4078,-0.4087,-0.4077,-0.4076,-0.4076,-0.4087,-0.4087,-0.4088,-0.4088,0,0,-0.3877,-0.3908,-0.3909,-0.3918,-0.394,-0.3949,-0.3957,-0.3973,-0.3979,-0.3994,-0.4001,-0.4019,-0.4027,-0.4037,-0.405,-0.4054,-0.4049,-0.4062,-0.4063,-0.4059,-0.4053,-0.4045,-0.4044,-0.4057,-0.4056,-0.4056,-0.4051,0,-0.3869,-0.3885,-0.3902,-0.3911,-0.3921,-0.394,-0.3947,-0.3962,-0.3975,-0.3985,-0.4,-0.4011,-0.4022,-0.4028,-0.4033,-0.4048,-0.4047,-0.4049,-0.4064,-0.4064,-0.4058,-0.4044,-0.4036,-0.403,-0.4051,-0.4051,-0.4051,0,-0.3862,-0.3875,-0.3886,-0.3907,-0.3912,-0.3918,-0.3934,-0.3944,-0.3961,-0.3971,-0.3982,-0.3996,-0.4007,-0.4015,-0.4029,-0.403,-0.4037,-0.4046,-0.4046,-0.4048,-0.4056,-0.4044,-0.4028,-0.4027,-0.405,-0.405,-0.405,0,-0.3842,-0.3863,-0.3871,-0.3879,-0.3905,-0.3909,-0.392,-0.3938,-0.3946,-0.3961,-0.3966,-0.3982,-0.399,-0.4002,-0.402,-0.4025,-0.4033,-0.4043,-0.4041,-0.4041,-0.4041,-0.4041,-0.4026,-0.4047,-0.4047,-0.4047,-0.4047,0,-0.383,-0.3836,-0.3863,-0.3868,-0.3875,-0.3895,-0.3902,-0.3914,-0.393,-0.3939,-0.3957,-0.3964,-0.3988,-0.3999,-0.4013,-0.4023,-0.4027,-0.4035,-0.4038,-0.4032,-0.4031,-0.4037,-0.4038,-0.4047,-0.4047,-0.4047,-0.4047,0,-0.3808,-0.3827,-0.3837,-0.3861,-0.3867,-0.3871,-0.3892,-0.3898,-0.3912,-0.3923,-0.3927,-0.3949,-0.3963,-0.3982,-0.4002,-0.4012,-0.402,-0.4026,-0.4013,-0.4015,-0.4012,-0.4012,-0.4,-0.3999,-0.4021,-0.4021,-0.4021,0,-0.3799,-0.3804,-0.3828,-0.3835,-0.3845,-0.3856,-0.3865,-0.3886,-0.3894,-0.3915,-0.3919,-0.3934,-0.3947,-0.3968,-0.3986,-0.4002,-0.4008,-0.4003,-0.401,-0.4005,-0.4007,-0.4007,-0.4007,-0.4001,-0.4,-0.4,-0.4,0,-0.3782,-0.3791,-0.3802,-0.3818,-0.3828,-0.3841,-0.3855,-0.386,-0.3883,-0.3892,-0.3906,-0.3916,-0.3937,-0.3951,-0.3969,-0.3981,-0.3994,-0.3997,-0.3998,-0.3991,-0.3984,-0.3987,-0.4008,-0.3997,-0.3997,-0.3998,-0.3998,-0.3998,-0.3766,-0.377,-0.3788,-0.3801,-0.3814,-0.3827,-0.3834,-0.3849,-0.3861,-0.3879,-0.3891,-0.3904,-0.3922,-0.3948,-0.3959,-0.3971,-0.3976,-0.3976,-0.3976,-0.3976,-0.3974,-0.3983,-0.3974,-0.3974,-0.3974,-0.3974,-0.3974,0,-0.3748,-0.3761,-0.3772,-0.3791,-0.3801,-0.3813,-0.3829,-0.3837,-0.3849,-0.3865,-0.3877,-0.3894,-0.3908,-0.3928,-0.3945,-0.395,-0.3956,-0.3953,-0.3953,-0.3955,-0.3968,-0.3966,-0.3948,-0.3948,-0.3948,-0.3948,-0.3948,-0.3948,-0.374,-0.3749,-0.376,-0.3776,-0.3789,-0.3802,-0.381,-0.3822,-0.3835,-0.3853,-0.3865,-0.3878,-0.3895,-0.3913,-0.3928,-0.3933,-0.3938,-0.3933,-0.394,-0.3952,-0.3954,-0.3957,-0.3955,-0.3934,-0.3934,-0.3927,-0.3926,-0.3926]},{"header":{"parameterUnit":"m.s-1","parameterCategory":1,"la1":30.2991,"la2":30.254,"lo1":-89.0895,"lo2":-89.0444,"dy":0.0017,"dx":0.0017,"nx":28,"ny":28,"refTime":"2024-02-20T09:00:00:Z","depth":0,"parameterNumber":3,"parameterNumberName":"V-component_of_WINDS"},"data":[0,0,0,0,0,0,0,0,0,0,0,0,0,0,0,0,0,0,0,0,0,0,0,0,0,0,0,0,0,0,0,0,0,0,0,0,0,0,0,0,0,0,0,0,0,0,0,0,0,0,0,0,0,0,0,0,0,0,0.0354,0.0354,0,0.0344,0.0344,0.0344,0.0328,0.0328,0.0327,0.0327,0.0318,0.0318,0.0318,0,0,0,0,0,0,0,0,0,0,0,0,0,0.0361,0.0361,0.0354,0.0354,0.0354,0.0344,0.0344,0.0343,0.0328,0.0328,0.0327,0.0327,0.0318,0.0318,0.0318,0,0,0,0,0,0,0,0,0,0,0,0,0,0.0355,0.0361,0.0354,0.0345,0.0344,0.0344,0.0344,0.0343,0.0328,0.0328,0.0327,0.0327,0.0318,0.0318,0.0318,0.0326,0,0,0.0318,0.0318,0,0,0,0,0,0,0,0,0.0355,0.0355,0.0346,0.0345,0.0344,0.0337,0.0342,0.0338,0.0328,0.0334,0.0327,0.0327,0.0324,0.0324,0.0323,0.0326,0.0325,0.0318,0.0318,0.0318,0.0318,0,0,0,0,0,0,0,0.0356,0.0355,0.035,0.0346,0.0345,0.0341,0.034,0.0341,0.0332,0.0334,0.0332,0.0331,0.0324,0.0323,0.0323,0.0325,0.0318,0.0318,0.0318,0.0318,0.0334,0.0334,0,0,0,0,0,0,0.0357,0.0355,0.035,0.035,0.0349,0.0342,0.034,0.034,0.0332,0.033,0.0332,0.0331,0.0323,0.0323,0.0322,0.0331,0.0318,0.0318,0.0318,0.0334,0.0334,0.0335,0,0,0,0,0,0,0.0357,0.0357,0.0351,0.0352,0.0351,0.0342,0.0341,0.034,0.0339,0.033,0.0329,0.0333,0.0323,0.0322,0.0325,0.0331,0.0318,0.0318,0.0333,0.0334,0.0334,0.035,0,0,0,0,0,0,0.0358,0.0357,0.036,0.0352,0.0351,0.0354,0.0342,0.034,0.0339,0.0337,0.0331,0.0329,0.0322,0.0325,0.0325,0.0331,0.0318,0.0333,0.0333,0.0334,0.0349,0.0351,0.0353,0,0,0,0,0,0.0358,0.0365,0.036,0.036,0.0355,0.0354,0.0353,0.0345,0.0339,0.0342,0.0337,0.0329,0.033,0.0326,0.0325,0.0331,0.0332,0.0333,0.0334,0.0348,0.0351,0.0353,0,0,0,0,0,0,0.0375,0.0364,0.0359,0.0364,0.036,0.0352,0.0355,0.0348,0.0346,0.0345,0.0335,0.0334,0.0338,0.0335,0.033,0.0339,0.033,0.0331,0.0341,0.0343,0.0345,0.0346,0.0318,0,0,0,0,0,0.0379,0.0379,0.037,0.0375,0.0373,0.0365,0.0364,0.0358,0.0354,0.0352,0.0347,0.0344,0.0343,0.0343,0.0342,0.0348,0.0347,0.0352,0.0354,0.0356,0.0357,0.036,0.0362,0.0338,0.0338,0.0338,0,0,0.0388,0.0382,0.0383,0.0378,0.0375,0.0375,0.0363,0.0365,0.0365,0.0353,0.0355,0.0351,0.0346,0.0351,0.0353,0.0349,0.0363,0.0357,0.0358,0.0359,0.0361,0.0364,0.0366,0.0338,0.0338,0.0338,0,0,0.0404,0.0399,0.0403,0.04,0.0394,0.0388,0.0389,0.0382,0.0378,0.038,0.0371,0.0371,0.0371,0.0368,0.0366,0.038,0.0374,0.038,0.0391,0.0394,0.0396,0.0398,0.0403,0.0405,0.0381,0.0381,0.0382,0,0.0416,0.0416,0.0406,0.0408,0.0406,0.0394,0.0398,0.0395,0.039,0.0389,0.0384,0.0382,0.0378,0.0382,0.0386,0.0385,0.0386,0.0381,0.0397,0.0398,0.04,0.0405,0.0407,0.0382,0.0382,0.0382,0.0382,0,0.0431,0.0431,0.0435,0.0429,0.0428,0.0431,0.0422,0.0422,0.0415,0.041,0.0412,0.0407,0.0405,0.0405,0.0399,0.0408,0.0405,0.0399,0.039,0.0403,0.0408,0.041,0.0384,0.0383,0.0383,0.0383,0,0,0.0458,0.0447,0.0448,0.0446,0.0438,0.0438,0.044,0.0438,0.0438,0.0434,0.0436,0.0435,0.0429,0.0427,0.0421,0.0423,0.0435,0.0416,0.0416,0.042,0.0445,0.045,0.0453,0.043,0.0431,0.0431,0.0445,0,0.0473,0.0476,0.0467,0.0473,0.0473,0.0461,0.0463,0.0458,0.0453,0.0453,0.0447,0.0447,0.0438,0.0437,0.0439,0.0433,0.044,0.0432,0.0432,0.0432,0.0434,0.0455,0.0461,0.0474,0.0447,0.0447,0.0447,0,0.0492,0.0489,0.0494,0.0486,0.0486,0.0487,0.0484,0.0483,0.0478,0.0474,0.0472,0.0464,0.0466,0.0457,0.0459,0.0454,0.0453,0.045,0.0451,0.0451,0.0441,0.0456,0.0479,0.0481,0.045,0.045,0.045,0,0.0512,0.0509,0.0511,0.0509,0.05,0.0501,0.0498,0.0492,0.0491,0.0488,0.0487,0.0484,0.0483,0.0481,0.0473,0.0467,0.0476,0.0466,0.0473,0.0473,0.0476,0.0476,0.0499,0.0475,0.0475,0.0475,0.0475,0,0.053,0.0534,0.052,0.0522,0.0526,0.0515,0.0519,0.0514,0.0509,0.051,0.0499,0.05,0.0489,0.0488,0.0482,0.0485,0.0484,0.0481,0.048,0.0482,0.0483,0.0482,0.0481,0.0475,0.0475,0.0475,0.0475,0,0.0553,0.0544,0.0546,0.0537,0.0535,0.0538,0.053,0.0531,0.0525,0.0526,0.0525,0.0516,0.0514,0.0506,0.0503,0.0499,0.0504,0.05,0.0506,0.0505,0.0512,0.0512,0.0536,0.0539,0.0512,0.0513,0.0513,0,0.0566,0.0569,0.0559,0.0558,0.0555,0.0554,0.0553,0.0542,0.0541,0.0535,0.0537,0.0535,0.0533,0.0532,0.0525,0.0522,0.0519,0.0527,0.0518,0.0521,0.0519,0.0519,0.052,0.053,0.053,0.053,0.053,0,0.059,0.0585,0.0583,0.0579,0.0577,0.0574,0.057,0.0571,0.0559,0.0558,0.0557,0.0555,0.0552,0.055,0.0546,0.0542,0.0535,0.0533,0.0535,0.0538,0.0541,0.054,0.0512,0.0533,0.0533,0.0532,0.0532,0.0532,0.0608,0.061,0.0603,0.0601,0.0597,0.0593,0.0594,0.0587,0.0586,0.0582,0.0576,0.0575,0.057,0.0564,0.056,0.056,0.0555,0.0558,0.0558,0.0559,0.0561,0.0541,0.0559,0.0559,0.0559,0.0559,0.0559,0,0.0631,0.0626,0.0625,0.0619,0.0618,0.061,0.0605,0.0604,0.0604,0.0599,0.0596,0.0595,0.0593,0.0585,0.0582,0.0583,0.058,0.0583,0.0583,0.0582,0.0565,0.0564,0.0586,0.0586,0.0586,0.0586,0.0586,0.0586,0.0643,0.0646,0.064,0.064,0.0635,0.0634,0.0632,0.0628,0.0624,0.0622,0.0621,0.0615,0.0609,0.0606,0.0604,0.0601,0.0601,0.0606,0.0602,0.0586,0.0584,0.0581,0.058,0.0606,0.0606,0.062,0.062,0.062]}]]